{"data":{"norad_id":62456,"intl_designator":"2024-252C","name":"AGILA","alt_names":[],"object_type":"PAYLOAD","status":"ACTIVE","operator":null,"country":"RP","launch_date":"2024-12-29","launch_site_code":"AFETR","launch_vehicle":null,"mission":null,"orbit_class":"UNKNOWN","rcs_meters":null,"size_class":null,"mass_kg":null,"dimensions":null,"purposes":["comms"],"wikipedia_slug":null,"has_3d_model":false,"image_url":null,"decayed_at":null,"tle_current":{"epoch":"2026-09-19T21:06:57.472704Z","epoch_age_seconds":71958,"freshness":"FRESH","line1":"1 62456U 24252C   26262.87983186 -.00000186  00000+0  00000+0 0  9990","line2":"2 62456   0.0190 152.8123 0001245  35.5150 279.3643  1.00272459  6110","mean_motion":1.00272459,"eccentricity":0.0001245,"inclination_deg":0.019,"raan_deg":152.8123,"arg_perigee_deg":35.515,"mean_anomaly_deg":279.3643,"bstar":0,"rev_number":611,"period_min":1436.0872510367,"perigee_km":35781.156529977,"apogee_km":35791.655501188,"semimajor_km":42164.543015582,"source":"CELESTRAK","updated_at":"2026-09-20T09:00:35.340909Z"}}}